Regional Weather Roundup
Issued by NWS Little Rock, AR

Home | Current Version | Previous Version | Graphics & Text | Print | Product List | Glossary On
Versions: 1 2 3 4 5 6 7 8 9 10 11 12 13 14 15 16 17 18 19 20 21 22 23 24 25 26 27 28 29 30 31 32 33 34 35 36 37 38 39 40 41 42 43 44 45 46 47 48 49 50
570
ASUS44 KLZK 240005
RWRLZK

WEATHER ROUNDUP FOR ARKANSAS
NATIONAL WEATHER SERVICE LITTLE ROCK AR
600 PM CST FRI FEB 23 2018

NOTE: "FAIR" INDICATES FEW OR NO CLOUDS BELOW 12,000 FEET WITH NO
SIGNIFICANT WEATHER AND/OR OBSTRUCTIONS TO VISIBILITY.

ARZ001-003-010-029-240100-
NORTHWEST ARKANSAS

CITY           SKY/WX    TMP DP  RH WIND       PRES   REMARKS
FAYETTEVILLE   LGT RAIN  52  52 100 CALM      30.13F FOG
6HR MIN TEMP:  47; 6HR MAX TEMP:  52; 6HR PCP:  0.64;

FORT SMITH     LGT RAIN  51  50  96 E9        30.13F FOG
6HR MIN TEMP:  48; 6HR MAX TEMP:  51; 6HR PCP:  0.83;

HARRISON       LGT RAIN  46  46 100 SE10      30.19R FOG
6HR MIN TEMP:  45; 6HR MAX TEMP:  47;

BENTONVILLE    LGT RAIN  50  48  93 E10       30.13F
6HR MIN TEMP:  45; 6HR MAX TEMP:  50; 6HR PCP:  0.47;

ROGERS         LGT RAIN  48  48 100 E10       30.14S
6HR MIN TEMP:  45; 6HR MAX TEMP:  48; 6HR PCP:  0.48;

SILOAM SPGS    LGT RAIN  50  49  96 SE9       30.11F FOG
6HR MIN TEMP:  46; 6HR MAX TEMP:  50; 6HR PCP:  0.35;

HIGHFILL       LGT RAIN  50  50 100 E8        30.11F
6HR MIN TEMP:  46; 6HR MAX TEMP:  50; 6HR PCP:  0.41;

SPRINGDALE     LGT RAIN  50  50 100 E9        30.14F FOG
$$

ARZ004-005-016-240100-
NORTH CENTRAL ARKANSAS

CITY           SKY/WX    TMP DP  RH WIND       PRES   REMARKS
BATESVILLE     CLOUDY    51  49  92 CALM      30.22S
6HR MIN TEMP:  50; 6HR MAX TEMP:  51; 6HR PCP:  0.06;

FLIPPIN        RAIN      48  47  96 CALM      30.22S
6HR MIN TEMP:  48; 6HR MAX TEMP:  48; 6HR PCP:  0.22;

MTN HOME       LGT RAIN  47  47 100 E3        30.21S
6HR MIN TEMP:  47; 6HR MAX TEMP:  48; 6HR PCP:  0.20;

$$

ARZ040-041-240100-
WEST CENTRAL ARKANSAS

CITY           SKY/WX    TMP DP  RH WIND       PRES   REMARKS
MENA           CLOUDY    55  54  94 E6        30.13F
MOUNT IDA      CLOUDY    54  54 100 CALM      30.11F
6HR MIN TEMP:  52; 6HR MAX TEMP:  54; 6HR PCP:  0.14;

$$

ARZ009-017-025-026-028-240100-
NORTHEAST ARKANSAS

CITY           SKY/WX    TMP DP  RH WIND       PRES   REMARKS
JONESBORO      LGT RAIN  53  53 100 CALM      30.22R
6HR MIN TEMP:  53; 6HR MAX TEMP:  55; 6HR PCP:  0.02;

NEWPORT          N/A     51  49  92 N9        30.21F
6HR MIN TEMP:  51; 6HR MAX TEMP:  52; 6HR PCP:  0.01;

WALNUT RIDGE   CLOUDY    51  49  92 CALM      30.24R
6HR MIN TEMP:  51; 6HR MAX TEMP:  51; 6HR PCP:  0.02;

BLYTHEVILLE    CLOUDY    56  52  86 NE6       30.22F
6HR MIN TEMP:  56; 6HR MAX TEMP:  61;

$$

ARZ022-023-033-042-044-240100-
CENTRAL ARKANSAS

CITY           SKY/WX    TMP DP  RH WIND       PRES   REMARKS
LITTLE ROCK    CLOUDY    53  53 100 NE9       30.19F
6HR MIN TEMP:  53; 6HR MAX TEMP:  55; 6HR PCP: TRACE;

JACKSONVILLE   CLOUDY    53  53 100 NE6       30.19F FOG
6HR MIN TEMP:  53; 6HR MAX TEMP:  55; 6HR PCP:  0.01;

SEARCY         CLOUDY    52  52 100 NE5       30.22F
6HR MIN TEMP:  52; 6HR MAX TEMP:  55;

HOT SPRINGS    CLOUDY    56  55  97 E8        30.15S
6HR MIN TEMP:  55; 6HR MAX TEMP:  57; 6HR PCP:  0.03;

RUSSELLVILLE   CLOUDY    52  52 100 CALM      30.16S
6HR MIN TEMP:  50; 6HR MAX TEMP:  53; 6HR PCP:  0.55;

CLINTON        CLOUDY    52  52 100 CALM      30.19F
$$

ARZ036-240100-
EAST ARKANSAS

CITY           SKY/WX    TMP DP  RH WIND       PRES   REMARKS
WEST MEMPHIS   CLOUDY    59  58  96 N8        30.19R
6HR MIN TEMP:  58; 6HR MAX TEMP:  62;

$$

ARZ050-053-066-070-073-240100-
SOUTHWEST ARKANSAS

CITY           SKY/WX    TMP DP  RH WIND       PRES   REMARKS
ARKADELPHIA    CLOUDY    58  57  97 NE3       30.15F
6HR MIN TEMP:  54; 6HR MAX TEMP:  59; 6HR PCP: TRACE;

CAMDEN         CLOUDY    63  57  82 CALM      30.13S
TEXARKANA      CLOUDY    64  61  90 E6        30.10S
6HR MIN TEMP:  56; 6HR MAX TEMP:  64;

EL DORADO      CLOUDY    64  64 100 NE7       30.12S
6HR MIN TEMP:  57; 6HR MAX TEMP:  66; 6HR PCP: TRACE;

DE QUEEN       CLOUDY    60  60 100 E8        30.08F
6HR MIN TEMP:  54; 6HR MAX TEMP:  60;

$$

ARZ056-057-069-240100-
SOUTHEAST ARKANSAS

CITY           SKY/WX    TMP DP  RH WIND       PRES   REMARKS
PINE BLUFF     CLOUDY    58  56  93 N10       30.17S
6HR MIN TEMP:  55; 6HR MAX TEMP:  60;

STUTTGART      CLOUDY    55  53  93 N13       30.19F
6HR MIN TEMP:  54; 6HR MAX TEMP:  58; 6HR PCP: TRACE;

MONTICELLO     CLOUDY    64  60  87 NE7       30.13F
6HR MIN TEMP:  62; 6HR MAX TEMP:  65; 6HR PCP:  0.01;


$$






USA.gov is the U.S. government's official web portal to all federal, state and local government web resources and services.